Simultaneous Nadir Overpasses (SNOs) Predictions

Prediction of SNOs between AQUA and NOAA-19 Satellite Orbit:

Table of predicted SNOs for the next 14.0 days since TLE Epoch: 2/7/2020
Index Date (AQUA) Time (AQUA) Lat,Lon (AQUA) SZA (AQUA ) Date (NOAA-19) Time (NOAA-19) Lat,Lon (NOAA-19) SZA (NOAA-19 ) Distance(km) Time Diff (sec)
1 02/08/2020 20:48:20 -79.99, 17.29 83.44 02/08/2020 20:47:30 -79.99, 17.40 83.43 2.07 50
2 02/08/2020 21:37:47 80.01,-175.24 96.59 02/08/2020 21:38:28 80.01,-175.15 96.56 1.65 41
3 02/11/2020 02:22:03 79.90, 114.62 95.70 02/11/2020 02:20:55 79.83, 112.08 95.92 50.30 68
4 02/11/2020 03:11:33 -80.01, -78.66 84.14 02/11/2020 03:11:51 -79.99, -78.62 84.16 2.18 18
5 02/13/2020 08:45:18 79.99, 18.06 95.10 02/13/2020 08:45:09 79.98, 18.04 95.10 1.04 9
6 02/15/2020 14:19:04 -79.99, 114.66 85.66 02/15/2020 14:18:33 -79.97, 114.60 85.66 2.23 31
7 02/15/2020 15:08:31 80.02, -77.94 94.38 02/15/2020 15:09:29 79.99, -77.87 94.33 3.19 58
8 02/17/2020 19:52:49 79.98,-148.70 93.55 02/17/2020 19:51:50 79.96,-148.79 93.57 2.88 59
9 02/17/2020 20:42:16 -79.98, 18.95 86.47 02/17/2020 20:42:53 -79.99, 18.85 86.46 2.23 37




NCC Satellite Simultaneous Nadir Overpasses (SNOs) Prediction Service
